Location: Boullarre
(49.1305°N, 3.0047°E)
Time: 19:38:47
(UTC+00:00)

Cosmos 1892 Rocket - Pass Details

Date: 03 February 2023
Orbit: 605 x 631 km, 82.5° (Epoch: 25 March)

Event Time Altitude Azimuth Distance (km) Brightness Sun altitude
Rises 18:41:26 0° 191° (SSW) 2,898 7.2 -18.8°
Reaches altitude 10° 18:43:40 10° 193° (SSW) 1,992 6.3 -19.1°
Maximum altitude 18:48:05 78° 279° (W) 640 3.6 -19.9°
Drops below altitude 10° 18:52:30 10° 7° (N) 1,991 6.1 -20.6°
Sets 18:54:44 0° 9° (N) 2,897 6.9 -20.9°
